NOAA 16 DEB, 41498

Orbit data source: Space-Track

NOAA 16 DEB, 41498 is space debris in SSO originally from a launch on Thu, 21 Sep 2000 UTC launched from the Air Force Western Test Range (AFWTR). Debris objects in space refer to the collection of defunct objects orbiting the Earth. Examples of debris include non-operational satellites, rocket bodies, and fragments generated from explosions, collisions, or faulty payload assembly.

Loading next visibility...
Identifier
41498, 2000-055LW
Orbit
SSO
Country
Flag of USUS
Related business
Manufacturer
Unknown
Mission
Spacecraft
Bus & Motor
Unknown
Mass
Unknown
Launch date (UTC)
2000-09-21 (26 years ago)
Launch vehicle
Unknown
Launch site
Air Force Western Test Range (AFWTR)
Object type
Payload
Rocket body
Debris
Shape & HBR
Unknown shape, 0.1 m
Radar Cross Section
Small (<0.1 m²)

Expand to show TLE details & history
Last TLE update: 6 hours ago

TLE from 6 hours ago
0 NOAA 16 DEB
1 41498U 00055LW  26209.16293475  .00001806  00000-0  77559-3 0  9993
2 41498  99.0004 355.8503 0021662 181.4672 178.6447 14.25907869537659
Epoch: 2026-07-28T03:54Z
TLE epoch observation values (Epoch: 2026-07-28T03:54:37.562Z)
Latitude
0.00001°
Longitude
-8.64232°
Altitude
823.915 km
Speed
7.433 km/s
True Right ascension
23h 43m 24s
True Declination
0° 00' 00"
Sunlit
Object was in full shadow at epoch
Visualization orbit readout
Latitude
Unknown
Longitude
Unknown
Altitude
Unknown
Speed
Unknown
Apparent Right ascension
Unknown
Apparent Declination
Unknown
Sunlit
N/A
Visualization observer readout
Local Sidereal Time
23:35:21
Azimuth
Unknown
Elevation
Unknown
Doppler factor
Unknown
Orbital elements
Apogee altitude
818.162 km
Perigee altitude
787.052 km
Semi-major axis
7,180.744 km
Eccentricity
0.00217
Inclination
99.0004°
RAAN
355.8503°
Arg. of periapsis
181.4672°
True anomaly
178.65056°
Mean anomaly
178.6447°
Eccentric anomaly
178.64763°
Mean motion
3.56688 °/min
Orbital period
100.93 mins
BSTAR
0.00077559
Loading maneuver chart data...
Computing Atmospheric mass density...
Loading historical data...
Loading historical data...
Loading historical data...
Loading historical data...
Loading historical data...
Loading historical data...
Loading historical data...

Documentation

Showing up to 5 results
|